• In Belarus
  • List of Countries
  • For 7 days
  • Water Temperature
  • Weather Map
  • Weather Widgets
  • user-avatar
    Login

    Hourly Weather Encamp

    Today, 28 February, Friday

    Time Temperature Precipitation Wind Pressure Humidity
    00:00 +1°C° 0 mm 3 mps 622 mmHg 95%
    01:00 +1°C° 0.2 mm 3 mps 622 mmHg 95%
    02:00 +2°C° 0.2 mm 2 mps 622 mmHg 95%
    03:00 +3°C° 0.2 mm 1 mps 622 mmHg 96%
    04:00 +3°C° 0.3 mm 1 mps 623 mmHg 96%
    05:00 +3°C° 0.3 mm 1 mps 623 mmHg 96%
    06:00 +3°C° 0.3 mm 1 mps 623 mmHg 95%
    07:00 +4°C° 0 mm 1 mps 624 mmHg 90%
    08:00 +5°C° 0 mm 1 mps 625 mmHg 85%
    09:00 +5°C° 0 mm 0 mps 625 mmHg 80%
    10:00 +8°C° 0 mm 1 mps 625 mmHg 75%
    11:00 +9°C° 0 mm 1 mps 626 mmHg 71%
    12:00 +10°C° 0 mm 1 mps 626 mmHg 66%
    13:00 +10°C° 0 mm 1 mps 626 mmHg 67%
    14:00 +10°C° 0 mm 1 mps 625 mmHg 69%
    15:00 +9°C° 0 mm 1 mps 625 mmHg 70%
    16:00 +8°C° 0 mm 1 mps 624 mmHg 78%
    17:00 +6°C° 0 mm 1 mps 623 mmHg 85%
    18:00 +4°C° 0 mm 2 mps 622 mmHg 93%
    19:00 +4°C° 0 mm 2 mps 622 mmHg 93%
    20:00 +3°C° 0 mm 2 mps 622 mmHg 93%
    21:00 +3°C° 0 mm 2 mps 621 mmHg 93%
    22:00 +3°C° 0 mm 2 mps 621 mmHg 92%
    23:00 +3°C° 0 mm 2 mps 620 mmHg 91%

    Tomorrow, 29 February, Saturday

    Time Temperature Precipitation Wind Pressure Humidity
    00:00 +2°C° 0 mm 3 mps 620 mmHg 89%
    01:00 +1°C° 0 mm 3 mps 619 mmHg 89%
    02:00 +1°C° 0 mm 3 mps 618 mmHg 88%
    03:00 0°C° 0 mm 3 mps 617 mmHg 87%
    04:00 0°C° 0 mm 3 mps 616 mmHg 86%
    05:00 0°C° 0 mm 3 mps 616 mmHg 85%
    06:00 0°C° 0 mm 3 mps 616 mmHg 83%
    07:00 +2°C° 0 mm 3 mps 616 mmHg 80%
    08:00 +3°C° 0 mm 3 mps 616 mmHg 76%
    09:00 +4°C° 0 mm 3 mps 617 mmHg 73%
    10:00 +5°C° 0 mm 3 mps 617 mmHg 69%
    11:00 +7°C° 0 mm 3 mps 618 mmHg 65%
    12:00 +8°C° 0 mm 3 mps 618 mmHg 61%
    13:00 +7°C° 0 mm 2 mps 618 mmHg 65%
    14:00 +6°C° 0 mm 2 mps 617 mmHg 70%
    15:00 +6°C° 0 mm 2 mps 617 mmHg 74%
    16:00 +5°C° 0.1 mm 2 mps 616 mmHg 80%
    17:00 +5°C° 0.1 mm 1 mps 616 mmHg 86%
    18:00 +4°C° 0.1 mm 1 mps 616 mmHg 93%
    19:00 +3°C° 0.2 mm 1 mps 617 mmHg 94%
    20:00 +3°C° 0.2 mm 1 mps 617 mmHg 95%
    21:00 +3°C° 0.2 mm 1 mps 617 mmHg 95%
    22:00 +3°C° 0.2 mm 1 mps 617 mmHg 96%
    23:00 +2°C° 0.2 mm 1 mps 617 mmHg 96%

    Day after tomorrow, 1 March, Sunday

    Time Temperature Precipitation Wind Pressure Humidity
    00:00 +2°C° 0.2 mm 1 mps 617 mmHg 97%
    01:00 +1°C° 0.1 mm 1 mps 617 mmHg 96%
    02:00 +1°C° 0.1 mm 1 mps 616 mmHg 96%
    03:00 +1°C° 0.1 mm 1 mps 616 mmHg 96%
    04:00 0°C° 0.1 mm 0 mps 616 mmHg 96%
    05:00 -1°C° 0.1 mm 0 mps 616 mmHg 96%
    06:00 -1°C° 0.1 mm 0 mps 616 mmHg 96%
    07:00 +1°C° 0.1 mm 1 mps 616 mmHg 92%
    08:00 +1°C° 0.1 mm 1 mps 616 mmHg 87%
    09:00 +1°C° 0.1 mm 2 mps 617 mmHg 83%
    10:00 +2°C° 0 mm 2 mps 617 mmHg 79%
    11:00 +2°C° 0 mm 2 mps 617 mmHg 74%
    12:00 +2°C° 0 mm 3 mps 616 mmHg 70%
    13:00 +2°C° 0 mm 3 mps 616 mmHg 69%
    14:00 +2°C° 0 mm 3 mps 615 mmHg 67%
    15:00 +3°C° 0 mm 3 mps 615 mmHg 66%
    16:00 +3°C° 0.5 mm 2 mps 615 mmHg 76%
    17:00 +2°C° 0.5 mm 2 mps 614 mmHg 85%
    18:00 +1°C° 0.5 mm 1 mps 614 mmHg 95%
    19:00 +1°C° 0 mm 1 mps 614 mmHg 94%
    20:00 -1°C° 0 mm 2 mps 615 mmHg 94%
    21:00 -1°C° 0 mm 2 mps 615 mmHg 93%
    22:00 -1°C° 0 mm 2 mps 615 mmHg 93%
    23:00 -1°C° 0 mm 2 mps 614 mmHg 92%

    2 March, Monday

    Time Temperature Precipitation Wind Pressure Humidity
    00:00 -1°C° 0 mm 2 mps 614 mmHg 92%
    01:00 -1°C° 0.3 mm 2 mps 614 mmHg 92%
    02:00 -1°C° 0.3 mm 2 mps 613 mmHg 93%
    03:00 -1°C° 0.3 mm 2 mps 612 mmHg 94%
    04:00 -1°C° 1.5 mm 2 mps 612 mmHg 95%
    05:00 +1°C° 1.5 mm 1 mps 611 mmHg 97%
    06:00 0°C° 1.5 mm 1 mps 610 mmHg 98%
    07:00 +1°C° 0.7 mm 1 mps 611 mmHg 96%
    08:00 +1°C° 0.7 mm 1 mps 611 mmHg 95%
    09:00 -1°C° 0.7 mm 2 mps 611 mmHg 93%
    10:00 +1°C° 0.3 mm 2 mps 611 mmHg 90%
    11:00 +2°C° 0.3 mm 2 mps 612 mmHg 87%
    12:00 +3°C° 0.3 mm 2 mps 612 mmHg 84%
    13:00 +2°C° 1 mm 2 mps 611 mmHg 86%
    14:00 +1°C° 1 mm 2 mps 611 mmHg 87%
    15:00 -1°C° 1 mm 2 mps 611 mmHg 88%
    16:00 -2°C° 0.1 mm 2 mps 611 mmHg 89%
    17:00 -2°C° 0.1 mm 2 mps 610 mmHg 91%
    18:00 -3°C° 0.1 mm 2 mps 610 mmHg 92%
    19:00 -4°C° 0.5 mm 2 mps 611 mmHg 92%
    20:00 -5°C° 0.5 mm 3 mps 611 mmHg 93%
    21:00 -5°C° 0.5 mm 3 mps 612 mmHg 93%
    22:00 -6°C° 0.6 mm 3 mps 613 mmHg 93%
    23:00 -6°C° 0.6 mm 3 mps 613 mmHg 93%

    3 March, Tuesday

    Time Temperature Precipitation Wind Pressure Humidity
    00:00 -7°C° 0.6 mm 3 mps 614 mmHg 93%
    01:00 -7°C° 0.4 mm 3 mps 614 mmHg 93%
    02:00 -7°C° 0.4 mm 3 mps 614 mmHg 93%
    03:00 -7°C° 0.4 mm 2 mps 614 mmHg 93%
    04:00 -7°C° 0.6 mm 2 mps 614 mmHg 92%
    05:00 -6°C° 0.6 mm 2 mps 615 mmHg 92%
    06:00 -6°C° 0.6 mm 2 mps 615 mmHg 92%
    07:00 -6°C° 0.6 mm 3 mps 616 mmHg 88%
    08:00 -5°C° 0.6 mm 3 mps 617 mmHg 84%
    09:00 -4°C° 0.6 mm 3 mps 618 mmHg 80%
    10:00 -2°C° 0.1 mm 3 mps 618 mmHg 77%
    11:00 -2°C° 0.1 mm 3 mps 618 mmHg 74%
    12:00 -1°C° 0.1 mm 2 mps 618 mmHg 72%
    13:00 +1°C° 0 mm 2 mps 618 mmHg 71%
    14:00 +2°C° 0 mm 1 mps 618 mmHg 71%
    15:00 +3°C° 0 mm 1 mps 618 mmHg 71%
    16:00 +2°C° 0.2 mm 1 mps 617 mmHg 77%
    17:00 +1°C° 0.2 mm 1 mps 617 mmHg 82%
    18:00 0°C° 0.2 mm 1 mps 617 mmHg 88%
    19:00 +1°C° 1.5 mm 1 mps 617 mmHg 91%
    20:00 +1°C° 1.5 mm 1 mps 617 mmHg 94%
    21:00 +1°C° 1.5 mm 1 mps 617 mmHg 97%
    22:00 +2°C° 1.3 mm 1 mps 617 mmHg 98%
    23:00 +2°C° 1.3 mm 1 mps 617 mmHg 98%

    4 March, Wednesday

    Time Temperature Precipitation Wind Pressure Humidity
    00:00 +2°C° 1.3 mm 1 mps 617 mmHg 98%
    01:00 +3°C° 1.4 mm 1 mps 617 mmHg 98%
    02:00 +3°C° 1.4 mm 1 mps 617 mmHg 98%
    03:00 +3°C° 1.4 mm 1 mps 617 mmHg 98%
    04:00 +3°C° 0.9 mm 1 mps 617 mmHg 98%
    05:00 +3°C° 0.9 mm 1 mps 617 mmHg 98%
    06:00 +4°C° 0.9 mm 1 mps 617 mmHg 98%
    07:00 +4°C° 0.4 mm 1 mps 617 mmHg 97%
    08:00 +5°C° 0.4 mm 1 mps 618 mmHg 96%
    09:00 +5°C° 0.4 mm 1 mps 618 mmHg 95%
    10:00 +6°C° 0.2 mm 1 mps 618 mmHg 93%
    11:00 +7°C° 0.2 mm 1 mps 619 mmHg 90%
    12:00 +8°C° 0.2 mm 1 mps 619 mmHg 88%
    13:00 +8°C° 0.2 mm 1 mps 618 mmHg 89%
    14:00 +8°C° 0.2 mm 1 mps 618 mmHg 91%
    15:00 +7°C° 0.2 mm 2 mps 617 mmHg 92%
    16:00 +6°C° 0 mm 2 mps 617 mmHg 93%
    17:00 +5°C° 0 mm 2 mps 616 mmHg 95%
    18:00 +4°C° 0 mm 2 mps 615 mmHg 96%
    19:00 +4°C° 0 mm 2 mps 615 mmHg 96%
    20:00 +3°C° 0 mm 2 mps 615 mmHg 97%
    21:00 +3°C° 0 mm 2 mps 614 mmHg 97%
    22:00 +3°C° 0 mm 2 mps 614 mmHg 97%
    23:00 +3°C° 0 mm 2 mps 613 mmHg 97%
    Show more